Retour au catalogue

STARLINK-36252

ActifCommunicationsVLEO
NORAD 68533·PAYLOAD·🇺🇸 United States

Lancé Mar 30, 2026 depuis Cape Canaveral Space Force Station

Loading…

Prochains Passages (prochaines 24 heures)

TLE

FraisSource: CelesTrak SupGP

Époque: Sep 14, 2026, 23:18 UTC

1 68533C 26068AB  26257.97131944  .00032141  00000+0  95008-3 0  2579
2 68533  53.1584 325.5997 0001034  95.3408  53.1972 15.34358950    11

Suivez STARLINK-36252 en temps réel avec AllMySat

Download on the App Store